#timestamp,LO_Frequency,Hit,StdDev 
1575813615.2,286046999.1,N
1575813635.9,286046999.0,N
1575813655.7,286046997.3,N
1575813675.6,286046997.4,N
1575813695.4,286046999.2,N
1575813715.2,286046997.9,N
1575813735.1,286046999.0,N
1575813736.0,286046999.0,N
1575813755.8,286046996.6,N
1575813775.7,286047001.2,N
1575813795.5,286047000.3,N
1575813815.3,286047002.2,N
1575813835.2,286047002.6,N
1575813855.0,286047002.1,N
1575813855.9,286047002.1,N
1575813875.7,286047000.6,N
1575813895.6,286047001.2,N
1575813915.4,286046999.5,N
1575813935.3,286046997.1,N
1575813955.1,286046997.5,N
1575813956.0,286046997.5,N
1575813975.8,286046996.5,N
1575813995.7,286046998.5,N
1575814015.5,286046999.4,N
1575814035.4,286046997.7,N
1575814055.2,286047000.9,N
1575814075.0,286046997.0,N
1575814075.9,286046997.0,N
1575814095.8,286046996.9,N
1575814115.6,286046995.0,N
1575814135.4,286046995.9,N
1575814155.3,286046997.0,N
1575814175.1,286047001.0,N
1575814195.9,286047001.6,N
1575814215.7,286047000.8,N
1575814235.5,286047002.8,N
1575814255.4,286046998.7,N
1575814275.2,286046996.6,N
1575814295.0,286046997.8,N
1575814295.9,286046997.8,N
1575814315.8,286046995.2,N
1575814335.6,286046996.2,N
1575814355.5,286046996.0,N
1575814375.3,286046995.8,N
1575814395.1,286046993.7,N
1575814415.9,286046997.4,N
1575814435.7,286046997.5,N
1575814455.5,286046998.8,N
1575814475.4,286046996.9,N
1575814495.2,286046997.0,N
1575814515.1,286046998.4,N
1575814516.0,286046998.4,N
1575814535.8,286047000.6,N
1575814555.6,286047000.6,N
1575814575.5,286046999.0,N
1575814595.3,286046997.6,N
1575814615.2,286046997.6,N
1575814635.9,286046993.4,Y
1575814655.7,286046997.4,P
1575814675.6,286046995.6,P
1575814695.4,286046999.1,N
1575814715.2,286046998.2,N
1575814735.1,286047002.7,N
1575814736.0,286047002.7,N
1575814755.8,286047004.3,N
1575814775.7,286047003.9,N
1575814795.5,286047003.7,N
1575814815.3,286047003.4,N
1575814835.2,286047003.2,N
1575814855.0,286047001.4,N
1575814855.9,286047001.4,N
1575814875.8,286046999.8,N
1575814895.6,286046998.7,N
1575814915.4,286046999.2,N
1575814935.3,286046999.3,N
1575814955.1,286046999.9,N
1575814975.8,286047001.0,N
1575814995.7,286047000.7,N
1575815015.5,286046999.9,N
1575815035.4,286046998.6,N
1575815055.2,286046999.3,N
1575815075.0,286046999.1,N
1575815075.9,286046999.1,N
1575815095.8,286046998.5,N
1575815115.6,286047000.4,N
1575815135.4,286046999.8,N
1575815155.3,286047002.6,N
1575815175.1,286047003.9,N
1575815195.9,286047003.1,N
1575815215.7,286047001.9,N
1575815235.5,286047003.7,N
1575815255.4,286047003.9,N
1575815275.2,286047003.7,N
1575815295.0,286047002.1,N
1575815296.0,286047002.1,N
1575815315.8,286047003.7,N
1575815335.6,286047002.0,N
1575815355.5,286047002.2,N
1575815375.3,286047001.6,N
1575815395.1,286046999.7,N
1575815415.9,286047001.0,N
1575815435.7,286046998.3,N
1575815455.6,286046998.9,N
1575815475.4,286046999.0,N
1575815495.2,286047001.2,N
1575815515.1,286046999.9,N
1575815516.0,286046999.9,N
1575815535.8,286046998.3,N
1575815555.7,286046996.9,N
1575815575.5,286047000.0,N
1575815595.3,286047002.4,N
1575815615.2,286046999.9,N
1575815635.0,286046998.2,N
1575815635.9,286046998.2,N
1575815655.7,286047000.8,N
1575815675.6,286046998.5,N
1575815695.4,286047002.2,N
1575815715.3,286047001.9,N
1575815735.1,286047002.7,N
1575815736.0,286047002.7,N
1575815755.8,286047002.3,N
1575815775.7,286047001.7,N
1575815795.5,286047002.7,N
1575815815.4,286047001.1,N
1575815835.2,286047000.0,N
1575815855.0,286047000.4,N
1575815855.9,286047000.4,N
1575815875.8,286047001.1,N
1575815895.6,286047001.1,N
1575815915.4,286046998.5,N
1575815935.3,286046999.2,N
1575815955.1,286046997.8,N
1575815975.9,286046997.1,N
1575815995.7,286046999.3,N
1575816015.5,286046999.4,N
1575816035.4,286046999.5,N
1575816055.2,286046999.6,N
1575816075.0,286046997.3,N
1575816076.0,286046997.3,N
1575816095.8,286046996.9,N
1575816115.6,286046999.6,N
1575816135.5,286046999.1,N
1575816155.3,286046998.5,N
1575816175.1,286046999.9,N
1575816195.9,286046999.4,N
1575816215.7,286046999.5,N
1575816235.6,286046997.4,N
1575816255.4,286046996.9,N
1575816275.2,286046994.9,N
1575816295.1,286046997.8,N
1575816296.0,286046997.8,N
1575816315.8,286046998.1,N
1575816335.6,286046999.8,N
1575816355.5,286046999.7,N
1575816375.3,286047001.8,N
1575816395.2,286047003.5,N
1575816415.9,286047007.5,Y
1575816435.7,286047005.5,P
1575816455.6,286047004.7,N
1575816475.4,286047005.5,N
1575816495.3,286047004.2,N
1575816515.1,286047002.7,N
1575816516.0,286047002.7,N
1575816535.8,286046998.1,N
1575816555.7,286046998.4,N
1575816575.5,286046997.0,N
1575816595.3,286046997.0,N
1575816615.2,286046998.8,N
1575816635.0,286046999.6,N
1575816635.9,286046999.6,N
1575816655.8,286046999.0,N
1575816675.6,286046998.6,N
1575816695.4,286046998.2,N
1575816715.3,286047001.0,N
1575816735.1,286046998.4,N
1575816755.8,286047000.3,N
1575816775.7,286047002.2,N
1575816795.5,286047000.2,N
1575816815.4,286046998.2,N
1575816835.2,286046998.9,N
1575816855.0,286046999.1,N
1575816855.9,286046999.1,N
1575816875.8,286046999.4,N
1575816895.6,286046999.5,N
1575816915.4,286046997.8,N
1575816935.3,286046995.4,N
1575816955.1,286046994.9,N
1575816975.9,286046997.1,N
1575816995.7,286046997.3,N
1575817015.5,286046995.4,N
1575817035.4,286046995.9,N
1575817055.2,286046996.0,N
1575817075.1,286046995.7,N
1575817076.0,286046995.7,N
1575817095.8,286046994.9,N
1575817115.6,286046994.9,N
1575817135.5,286046996.5,N
1575817155.3,286046999.0,N
1575817175.1,286046998.5,N
1575817195.9,286046998.8,N
